Retour au catalogue

COSMOS 1914

ActifMilitairePO
NORAD 18793·PAYLOAD·🇷🇺 Russia

Lancé Jan 15, 1988 depuis Plesetsk Cosmodrome

Loading…

Prochains Passages (prochaines 24 heures)

TLE

FraisSource: Space-Track

Époque: Sep 14, 2026, 22:54 UTC

1 18793U 88002F   26257.95461117  .00000030  00000-0  10329-3 0  9993
2 18793  82.6099 155.3436 0017109 162.6089 211.2411 12.66463996787153

Suivez COSMOS 1914 en temps réel avec AllMySat

Download on the App Store